Weather in Tasikmalaya

Indonesia     7°21′34″S   108°13′26″E
temp.,
°C
wind,
m/s
gust,
m/s
humid.,
%
clouds,
%
prec.,
mm/h
press.,
hPa
HPBL,
m
13 may, thu
thu1301:00+22se119799 1.0 101073
04:00+22ese1297100 0.5 100979
07:00+22ese129678 0.8 1010123
10:00+26ese227792 0.4 1010786
13:00+29ese335774 0.6 10071577
16:00+27ese2369100 0.2 1007842
19:00+23ese139492 0.9 101099
22:00+22ese1298100 0.4 101192
14 may, fri
fri1401:00+22ese1297100 0.6 100999
04:00+21sse119892 0.1 100843
07:00+22ssw019463 0.2 101092
10:00+26se227536 0.3 1010803
13:00+28se227035 1.8 1007980
16:00+25se338040 0.8 1007656
19:00+22sse119775 1.7 101044
22:00+22sse1198100 0.4 101146
15 may, sat
sat1501:00+21s0198100 0.7 100968
04:00+21s019892 0.2 100959
07:00+22se129572 0.6 1010111
10:00+26se237772 0.9 1010773
13:00+28se326941 2.4 10071039
16:00+25se228554 2.3 1007508
19:00+22se129785 3.2 100956
22:00+22se119889 0.6 101085
16 may, sun
sun1601:00+22se119856 1.1 100976
04:00+21se019846 0.3 100943
07:00+22sse019676 0.4 101090
10:00+26sse228036 0.6 1010648
13:00+26sse228053 3.0 1007764
16:00+24sse239060 1.9 1008478
19:00+22sse129873 2.8 101090
22:00+22sse1198100 0.4 101186
17 may, mon
mon1701:00+22sse129797 1.1 101080
04:00+21se119878 0.5 100990
07:00+22ese119639 0.8 1010141
10:00+26se227729 0.9 1010753
13:00+26sse227844 3.6 1008805
16:00+24sse228995 3.9 1009425
19:00+21ese019889 5.3 101125
22:00+21ne019997 0.0 101232